Home > Time Zones > World Clock > Weather > Cuba > Havana > Past weeks

Flag for Cuba Weather past 2 weeks in Havana, Cuba

Now
70 °F

Scattered clouds.


Feels Like: 70 °F
Forecast: N/A
Wind: 8 mph from Northwest

Location: Aeropuerto Jose Marti - Rancho-Boyeros - Habana

Current Time: Jan 27, 2015 at 6:12:43 PM

Latest Report: Jan 27, 2015 at 5:55 PM


Visibility: 6 mi

Pressure: 30.07 "Hg

Humidity: 53%

Dew point: 52 °F

Location of HavanaLocation

Historic Weather in Havana — Graph

°F

Havana temperature yesterday

Maximum temperature yesterday: 77 °F (at 12:55 PM)
Minimum temperature yesterday: 52 °F (at 5:55 AM)
Average temperature yesterday: 66 °F

Past Weeks' High & Low Weather Summary

 TemperatureHumidityPressure
High86 °F (Jan 22, 2:55 PM)100% (Jan 16, 3:55 AM)30.15 "Hg (Jan 16, 3:55 AM)
Low41 °F (Jan 22, 4:55 AM)40% (Jan 22, 2:55 PM)29.98 "Hg (Jan 20, 5:55 PM)
Average70 °F75%30.06 "Hg
* Reported Jan 12 4:55 PM — Jan 27 4:55 PM, Havana, Weather by CustomWeather, © 2014

Note: Actual official high and low records may vary slightly from our data, if they occured in-between our weather recording intervals... More about our weather records

Advertising

Havana weather history for previous 24 hours

 ConditionsComfort  
Time TempWeatherWind HumidityBarometerVisibility
4:55 PM
Jan 27
72 °FScattered clouds.10 mph50%30.07 "Hg6 mi
3:55 PM70 °FScattered clouds.10 mph57%30.07 "HgN/A
2:55 PM72 °FPartly sunny.15 mph53%30.07 "HgN/A
1:55 PM73 °FPartly sunny.12 mph47%30.07 "HgN/A
12:55 PM72 °FPartly sunny.12 mph47%30.09 "HgN/A
11:55 AM70 °FPartly sunny.13 mph57%30.09 "HgN/A
10:55 AM73 °FScattered clouds.12 mph44%30.12 "HgN/A
8:55 AM68 °FScattered clouds.6 mph56%30.09 "HgN/A
7:55 AM66 °FScattered clouds.7 mph52%30.07 "Hg6 mi
6:55 AM66 °FPassing clouds.9 mph60%30.07 "Hg6 mi
5:55 AM64 °FPassing clouds.7 mph56%30.04 "Hg6 mi
4:55 AM68 °FPassing clouds.12 mph53%30.04 "Hg6 mi
3:55 AM66 °FPassing clouds.7 mph52%30.04 "Hg6 mi
2:55 AM66 °FPassing clouds.9 mph56%30.04 "Hg6 mi
1:55 AM66 °FPassing clouds.8 mph60%30.07 "Hg6 mi
12:55 AM66 °FPassing clouds.5 mph56%30.07 "Hg6 mi
11:55 PM
Jan 26
66 °FPassing clouds.7 mph56%30.04 "Hg6 mi
10:55 PM68 °FPassing clouds.7 mph56%30.07 "Hg6 mi
9:55 PM70 °FPassing clouds.9 mph53%30.04 "Hg6 mi
8:55 PM70 °FPassing clouds.9 mph57%30.04 "Hg6 mi
7:55 PM72 °FPassing clouds.12 mph61%30.04 "Hg6 mi
6:55 PM72 °FPassing clouds.10 mph61%30.01 "Hg6 mi
Weather by CustomWeather, © 2014

See weather overviewHow to use our weather pages